Find Starlink 2620

NORAD ID: 48453 Int'l Des: 2021-040 Owner: SPXS Country: US Constellation: starlink operational
LEOCIRCULAR

当前视图

正在加载3D地球...

About Starlink 2620

Starlink 2620 (NORAD 48453) is a starlink constellation satellite (v1.0) launched May 9, 2021 by SPXS of US. It operates in LEO, CIRCULAR orbit with a mass of 260.00 kg.

即将过境

Passes for default location (London). Set your location on the main map for personalized predictions.

高度历史

Loading altitude history...

两行轨道根数

1 48453U 21040AB 26236.40759701 .00004405 00000-0 15359-3 0 9992
2 48453 53.1598 117.6207 0001345 85.3604 274.7551 15.31711682292380
Epoch: Aug 24, 2026 • Age: 17 hours

当前状态

高度 471.3 km
远地点 / 近地点 N/A
速度 7.63 km/s
星下点 26.76°N, 115.57°E
发射日期 May 9, 2021
运行时间 5.2 years
类型 internet

技术详情

分类 Payload
质量 260.00 kg
干质量 248.00 kg
总质量 260.00 kg
长度 0.20 m
直径 2.80 m
跨度 9.00 m
形状 Box + pan
制造商 SPXS
平台类型 Starlink
阶段状态 In Orbit
所有者/国家 SPXS/US

Most Searched